When you browse on this site, cookies collect data to enhance your experience and personalize the content and advertising you see.
Visit our Privacy Policy to learn more. By continuing to use the site, you agree to this use of cookies and data.
  • In Portugal
  • List of Countries
  • For 7 days
  • Water Temperature
  • Satellite Maps
  • Weather Map
  • Weather Widgets
  • user-avatar
    Login

    Hourly Weather Gacnik

    Today, 23 July, Tuesday

    Time Temperature Precipitation Wind Pressure Humidity
    00:00 +16°C° 0 mm 1 mps 751 mmHg 78%
    01:00 +16°C° 0 mm 1 mps 751 mmHg 79%
    02:00 +16°C° 0 mm 1 mps 751 mmHg 80%
    03:00 +16°C° 0 mm 1 mps 751 mmHg 82%
    04:00 +16°C° 0 mm 1 mps 750 mmHg 83%
    05:00 +15°C° 0.2 mm 1 mps 750 mmHg 86%
    06:00 +15°C° 0.2 mm 1 mps 751 mmHg 89%
    07:00 +15°C° 0.2 mm 1 mps 751 mmHg 92%
    08:00 +16°C° 0 mm 1 mps 751 mmHg 91%
    09:00 +16°C° 0 mm 1 mps 751 mmHg 90%
    10:00 +18°C° 0 mm 1 mps 751 mmHg 89%
    11:00 +18°C° 0 mm 1 mps 751 mmHg 90%
    12:00 +18°C° 0 mm 2 mps 751 mmHg 91%
    13:00 +18°C° 0 mm 2 mps 751 mmHg 91%
    14:00 +19°C° 0 mm 2 mps 751 mmHg 87%
    15:00 +20°C° 0 mm 3 mps 751 mmHg 83%
    16:00 +21°C° 0 mm 3 mps 751 mmHg 79%
    17:00 +21°C° 0 mm 3 mps 750 mmHg 80%
    18:00 +21°C° 0 mm 2 mps 750 mmHg 81%
    19:00 +20°C° 0 mm 2 mps 750 mmHg 82%
    20:00 +20°C° 0 mm 2 mps 750 mmHg 86%
    21:00 +19°C° 0 mm 2 mps 750 mmHg 89%
    22:00 +20°C° 0 mm 1 mps 750 mmHg 92%
    23:00 +19°C° 0 mm 1 mps 750 mmHg 94%

    Tomorrow, 24 July, Wednesday

    Time Temperature Precipitation Wind Pressure Humidity
    00:00 +19°C° 0 mm 1 mps 750 mmHg 95%
    01:00 +18°C° 0 mm 1 mps 750 mmHg 96%
    02:00 +18°C° 0 mm 1 mps 750 mmHg 97%
    03:00 +18°C° 0 mm 1 mps 749 mmHg 97%
    04:00 +16°C° 0 mm 1 mps 749 mmHg 98%
    05:00 +19°C° 0 mm 1 mps 749 mmHg 92%
    06:00 +21°C° 0 mm 1 mps 750 mmHg 86%
    07:00 +21°C° 0 mm 2 mps 750 mmHg 80%
    08:00 +24°C° 0 mm 2 mps 750 mmHg 72%
    09:00 +26°C° 0 mm 2 mps 750 mmHg 64%
    10:00 +27°C° 0 mm 2 mps 750 mmHg 56%
    11:00 +28°C° 0.1 mm 2 mps 750 mmHg 54%
    12:00 +28°C° 0.1 mm 2 mps 750 mmHg 52%
    13:00 +29°C° 0.1 mm 2 mps 750 mmHg 50%
    14:00 +29°C° 0.2 mm 2 mps 750 mmHg 53%
    15:00 +28°C° 0.2 mm 3 mps 750 mmHg 56%
    16:00 +28°C° 0.2 mm 3 mps 750 mmHg 59%
    17:00 +27°C° 0.1 mm 2 mps 750 mmHg 65%
    18:00 +25°C° 0.1 mm 2 mps 750 mmHg 71%
    19:00 +24°C° 0.1 mm 2 mps 749 mmHg 77%
    20:00 +23°C° 0 mm 2 mps 750 mmHg 82%
    21:00 +21°C° 0 mm 1 mps 750 mmHg 86%
    22:00 +20°C° 0 mm 1 mps 750 mmHg 90%
    23:00 +19°C° 0 mm 1 mps 750 mmHg 91%

    Day after tomorrow, 25 July, Thursday

    Time Temperature Precipitation Wind Pressure Humidity
    00:00 +19°C° 0 mm 1 mps 750 mmHg 91%
    01:00 +18°C° 0 mm 1 mps 750 mmHg 92%
    02:00 +18°C° 0 mm 1 mps 750 mmHg 93%
    03:00 +18°C° 0 mm 1 mps 750 mmHg 93%
    04:00 +18°C° 0 mm 1 mps 750 mmHg 94%
    05:00 +19°C° 0 mm 1 mps 750 mmHg 88%
    06:00 +21°C° 0 mm 1 mps 751 mmHg 81%
    07:00 +22°C° 0 mm 1 mps 751 mmHg 75%
    08:00 +24°C° 0 mm 1 mps 751 mmHg 67%
    09:00 +25°C° 0 mm 2 mps 751 mmHg 58%
    10:00 +27°C° 0 mm 2 mps 751 mmHg 50%
    11:00 +28°C° 0 mm 2 mps 751 mmHg 47%
    12:00 +29°C° 0 mm 2 mps 751 mmHg 43%
    13:00 +29°C° 0 mm 3 mps 751 mmHg 39%
    14:00 +29°C° 0 mm 3 mps 751 mmHg 40%
    15:00 +29°C° 0 mm 3 mps 751 mmHg 41%
    16:00 +29°C° 0 mm 4 mps 751 mmHg 42%
    17:00 +27°C° 0 mm 3 mps 750 mmHg 48%
    18:00 +25°C° 0 mm 3 mps 750 mmHg 54%
    19:00 +23°C° 0 mm 2 mps 750 mmHg 60%
    20:00 +21°C° 0 mm 2 mps 750 mmHg 66%
    21:00 +19°C° 0 mm 2 mps 750 mmHg 71%
    22:00 +18°C° 0 mm 2 mps 750 mmHg 77%
    23:00 +17°C° 0 mm 2 mps 750 mmHg 81%

    26 July, Friday

    Time Temperature Precipitation Wind Pressure Humidity
    00:00 +17°C° 0 mm 2 mps 750 mmHg 85%
    01:00 +16°C° 0 mm 2 mps 750 mmHg 89%
    02:00 +16°C° 0 mm 2 mps 750 mmHg 91%
    03:00 +16°C° 0 mm 2 mps 750 mmHg 93%
    04:00 +15°C° 0 mm 2 mps 750 mmHg 95%
    05:00 +17°C° 0 mm 2 mps 750 mmHg 85%
    06:00 +19°C° 0 mm 3 mps 749 mmHg 76%
    07:00 +21°C° 0 mm 3 mps 749 mmHg 66%
    08:00 +22°C° 0 mm 4 mps 749 mmHg 61%
    09:00 +25°C° 0 mm 4 mps 750 mmHg 56%
    10:00 +26°C° 0 mm 4 mps 750 mmHg 50%
    11:00 +26°C° 0 mm 4 mps 750 mmHg 48%
    12:00 +27°C° 0 mm 4 mps 749 mmHg 46%
    13:00 +28°C° 0 mm 4 mps 749 mmHg 43%
    14:00 +27°C° 0 mm 4 mps 749 mmHg 45%
    15:00 +27°C° 0 mm 4 mps 748 mmHg 46%
    16:00 +26°C° 0 mm 5 mps 748 mmHg 47%
    17:00 +25°C° 0 mm 4 mps 748 mmHg 54%
    18:00 +22°C° 0 mm 4 mps 748 mmHg 61%
    19:00 +21°C° 0 mm 4 mps 748 mmHg 69%
    20:00 +19°C° 0 mm 3 mps 748 mmHg 75%
    21:00 +18°C° 0 mm 3 mps 748 mmHg 81%
    22:00 +17°C° 0 mm 2 mps 748 mmHg 87%
    23:00 +17°C° 0 mm 2 mps 748 mmHg 90%

    27 July, Saturday

    Time Temperature Precipitation Wind Pressure Humidity
    00:00 +17°C° 0 mm 2 mps 748 mmHg 92%
    01:00 +16°C° 0 mm 2 mps 747 mmHg 95%
    02:00 +16°C° 0 mm 2 mps 747 mmHg 96%
    03:00 +16°C° 0 mm 2 mps 747 mmHg 96%
    04:00 +16°C° 0 mm 2 mps 747 mmHg 97%
    05:00 +18°C° 0 mm 3 mps 747 mmHg 89%
    06:00 +20°C° 0 mm 3 mps 747 mmHg 82%
    07:00 +21°C° 0 mm 4 mps 747 mmHg 75%
    08:00 +23°C° 0 mm 4 mps 747 mmHg 69%
    09:00 +25°C° 0 mm 4 mps 747 mmHg 63%
    10:00 +27°C° 0 mm 5 mps 747 mmHg 57%
    11:00 +27°C° 0 mm 5 mps 747 mmHg 54%
    12:00 +28°C° 0 mm 5 mps 747 mmHg 51%
    13:00 +29°C° 0 mm 5 mps 747 mmHg 48%
    14:00 +29°C° 0 mm 5 mps 746 mmHg 50%
    15:00 +28°C° 0 mm 5 mps 746 mmHg 53%
    16:00 +28°C° 0 mm 5 mps 746 mmHg 55%
    17:00 +27°C° 0 mm 4 mps 746 mmHg 61%
    18:00 +26°C° 0 mm 4 mps 746 mmHg 67%
    19:00 +25°C° 0 mm 4 mps 745 mmHg 73%
    20:00 +24°C° 0 mm 3 mps 746 mmHg 77%
    21:00 +22°C° 0 mm 3 mps 746 mmHg 81%
    22:00 +21°C° 0 mm 3 mps 746 mmHg 85%
    23:00 +20°C° 0 mm 3 mps 746 mmHg 87%

    28 July, Sunday

    Time Temperature Precipitation Wind Pressure Humidity
    00:00 +20°C° 0 mm 3 mps 746 mmHg 89%
    01:00 +20°C° 0 mm 2 mps 746 mmHg 91%
    02:00 +19°C° 0 mm 2 mps 746 mmHg 92%
    03:00 +19°C° 0 mm 2 mps 746 mmHg 93%
    04:00 +19°C° 0 mm 2 mps 745 mmHg 94%
    05:00 +20°C° 0 mm 3 mps 746 mmHg 87%
    06:00 +22°C° 0 mm 3 mps 746 mmHg 79%
    07:00 +24°C° 0 mm 3 mps 746 mmHg 71%
    08:00 +26°C° 0 mm 4 mps 746 mmHg 64%
    09:00 +28°C° 0 mm 5 mps 746 mmHg 56%
    10:00 +29°C° 0 mm 5 mps 746 mmHg 49%
    11:00 +30°C° 0 mm 5 mps 746 mmHg 47%
    12:00 +30°C° 0 mm 5 mps 746 mmHg 45%
    13:00 +32°C° 0 mm 5 mps 746 mmHg 43%
    14:00 +30°C° 0 mm 5 mps 746 mmHg 46%
    15:00 +30°C° 0 mm 5 mps 746 mmHg 48%
    16:00 +30°C° 0 mm 5 mps 746 mmHg 50%
    17:00 +28°C° 0 mm 4 mps 746 mmHg 55%
    18:00 +27°C° 0 mm 4 mps 746 mmHg 61%
    19:00 +25°C° 0 mm 4 mps 746 mmHg 66%
    20:00 +24°C° 0 mm 3 mps 746 mmHg 71%
    21:00 +22°C° 0 mm 3 mps 746 mmHg 75%
    22:00 +20°C° 0 mm 3 mps 747 mmHg 80%
    23:00 +20°C° 0 mm 2 mps 747 mmHg 80%
    Show more